Location: Boda
(47.1872°N, 9.5454°E)
Time: 09:46:07
(UTC+00:00)

Spot 1 - Pass Details

Date: 14 May 2021
Orbit: 576 x 776 km, 98.7° (Epoch: 16 June)

Event Time Altitude Azimuth Distance (km) Brightness Sun altitude
Exits shadow 02:13:28 - 171° (S) 2,468 6.8 -13.3°
Reaches altitude 10° 02:14:19 10° 172° (S) 2,132 6.4 -13.2°
Maximum altitude 02:18:59 72° 257° (WSW) 759 4.3 -12.7°
Drops below altitude 10° 02:23:59 10° 342° (NNW) 2,267 7.3 -12.1°
Sets 02:26:21 0° 344° (NNW) 3,219 8.2 -11.8°
